CAPE
0 0 0 0 0 0 0 0 0 0 0 0 0 0 0 0 0 0 0 0 0 0
0 0 0 0 0 0 0 0 0 0 0 0 0 0 0 0 0 0 0 0 0 0
0 0 0 0 0 0 0 0 0 0 0 0 0 0 0 0 0 0 0 0 0 0
0 0 0 0 0 0 0 0 0 0 0 0 0 0 0 0 0 0 0 0 0 0
0 0 0 0 0 0 0 0 0 0 0 0 0 0 0 0 0 0 0 0 0 0
0 0 0 0 0 0 0 0 0 0 0 0 0 0 0 0 0 0 0 0 0 0
0 0 0 0 0 0 0 0 0 0 0 0 0 0 0 0 0 0 0 0 0 0
0 0 0 0 0 0 0 0 0 0 0 0 0 0 0 0 0 0 0 0 0 0
0 0 0 0 0 0 0 0 0 0 0 0 0 0 0 0 0 0 0 0 0 0
0 0 0 0 0 0 0 0 0 0 0 0 0 0 0 0 0 0 0 0 0 0
0 0 0 0 0 0 0 0 0 0 0 0 0 0 0 0 0 0 0 0 0 0
0 0 0 0 0 0 0 0 0 0 0 0 0 0 0 0 0 0 0 0 0 0
0 0 0 0 0 0 0 0 0 0 0 0 0 0 0 0 0 0 0 0 0 0
0 0 0 0 0 0 0 0 0 0 0 0 0 0 0 0 0 0 0 0 0 0
CIN
0 0 0 0 0 0 0 0 0 0 0 0 0 0 0 0 0 0 0 0 0 0
0 0 0 0 0 0 0 0 0 0 0 0 0 0 0 0 0 0 0 0 0 0
0 0 0 0 0 0 0 0 0 0 0 0 0 0 0 0 0 0 0 0 0 0
0 0 0 0 0 0 0 0 0 0 0 0 0 0 0 0 0 0 0 0 0 0
0 0 0 0 0 0 0 0 0 0 0 0 0 0 0 0 0 0 0 0 0 0
0 0 0 0 0 0 0 0 0 0 0 0 0 0 0 0 0 0 0 0 0 0
0 0 0 0 0 0 0 0 0 0 0 0 0 0 0 0 0 0 0 0 0 0
0 0 0 0 0 0 0 0 0 0 0 0 0 0 0 0 0 0 0 0 0 0
0 0 0 0 0 0 0 0 0 0 0 0 0 0 0 0 0 0 0 0 0 0
0 0 0 0 0 0 0 0 0 0 0 0 0 0 0 0 0 0 0 0 0 0
0 0 0 0 0 0 0 0 0 0 0 0 0 0 0 0 0 0 0 0 0 0
0 0 0 0 0 0 0 0 0 0 0 0 0 0 0 0 0 0 0 0 0 0
0 0 0 0 0 0 0 0 0 0 0 0 0 0 0 0 0 0 0 0 0 0
0 0 0 0 0 0 0 0 0 0 0 0 0 0 0 0 0 0 0 0 0 0
Wind_Speed
2 4 7 10 13 15 17 19 21 25 27 28 24 25 24 26 27 26 28 28 28 27
6 7 9 11 13 15 17 19 25 26 28 28 27 28 26 28 30 29 28 29 27 26
9 8 9 11 13 15 18 23 25 26 27 28 29 29 29 28 29 29 30 28 26 27
7 8 10 12 13 19 19 23 25 26 27 28 30 28 26 27 29 29 28 25 26 27
7 9 11 12 13 14 19 22 23 25 28 29 28 26 26 29 30 27 26 25 24 26
11 11 12 12 13 15 19 20 22 25 27 28 28 26 26 28 26 23 24 24 26 27
12 11 12 12 13 16 18 20 22 25 27 28 27 26 23 23 23 23 23 24 25 27
11 11 12 12 14 17 18 21 24 27 29 27 26 24 22 21 22 23 24 25 26 25
11 12 12 13 16 21 23 26 28 29 29 27 27 24 20 20 22 22 25 26 25 23
11 11 12 16 20 23 27 29 30 30 29 29 26 25 20 18 22 24 25 23 23 23
10 12 15 19 22 27 27 28 30 33 32 31 28 21 17 19 20 20 20 19 20 22
9 12 17 22 25 25 28 30 31 29 31 31 28 20 18 16 17 19 18 18 19 21
16 18 22 23 29 28 26 30 29 31 31 28 25 19 14 14 16 18 17 17 18 20
17 22 24 26 25 23 26 29 32 32 29 26 20 15 12 12 14 15 15 16 18 18
Wind_Direction
267 307 323 329 334 337 339 342 346 344 345 345 343 341 339 339 337 337 336 335 334 332
306 312 317 327 333 336 340 342 340 341 340 342 340 341 337 334 335 334 332 332 335 334
302 311 317 325 330 334 337 335 338 339 339 338 338 338 339 337 336 335 333 334 335 335
293 301 306 311 319 322 329 335 336 337 337 336 335 335 337 337 337 335 335 337 336 336
296 304 307 310 318 325 328 331 334 335 335 335 335 335 335 334 335 336 334 336 338 337
300 304 306 310 317 320 326 330 332 334 335 333 331 330 332 335 337 339 337 337 338 337
297 299 305 311 315 323 329 331 332 332 332 332 331 330 329 336 340 338 340 340 338 336
293 300 309 318 325 331 329 331 331 330 330 328 328 329 326 329 333 335 337 339 339 340
301 312 320 327 331 334 332 330 329 327 327 324 324 323 321 326 330 332 333 336 340 341
307 313 323 330 332 331 331 329 326 327 326 325 323 320 320 327 331 334 336 336 340 341
319 321 329 331 334 333 328 329 329 328 328 327 327 326 325 328 332 336 339 339 341 340
316 329 327 330 331 330 328 327 329 332 331 329 329 328 326 334 338 339 339 342 343 343
340 339 335 330 327 328 327 327 330 330 329 330 330 330 334 335 338 339 340 342 344 346
335 329 327 325 326 328 329 330 329 329 330 330 332 335 334 334 336 336 338 339 342 345